New Orleans, LA Weather Center

Moon Phase Calendar



Online Cameras

 


      

Current Conditions in New Orleans
6/18/2021 6:27:05 PM

73°F
Feels Like 74
Rain
Humidity
83%
Pressure
29.83"
Wind
6 mph (NNE)
Dew Point
68°F
UV Index
0/10 (Low)
Visibility
1 mi

Hourly Forecast

Date & Time Fri, Jun 18
6:00 PM
Fri, Jun 18
7:00 PM
Fri, Jun 18
8:00 PM
Fri, Jun 18
9:00 PM
Fri, Jun 18
10:00 PM
Fri, Jun 18
11:00 PM
Sat, Jun 19
12:00 AM
Sat, Jun 19
1:00 AM
Sat, Jun 19
2:00 AM
Sat, Jun 19
3:00 AM
Sat, Jun 19
4:00 AM
Sat, Jun 19
5:00 AM
Sat, Jun 19
6:00 AM
Sat, Jun 19
7:00 AM
Sat, Jun 19
8:00 AM
Sat, Jun 19
9:00 AM
Sat, Jun 19
10:00 AM
Sat, Jun 19
11:00 AM
Sat, Jun 19
12:00 PM
Sat, Jun 19
1:00 PM
Sat, Jun 19
2:00 PM
Sat, Jun 19
3:00 PM
Sat, Jun 19
4:00 PM
Sat, Jun 19
5:00 PM
Sat, Jun 19
6:00 PM
Sat, Jun 19
7:00 PM
Sat, Jun 19
8:00 PM
Sat, Jun 19
9:00 PM
Sat, Jun 19
10:00 PM
Sat, Jun 19
11:00 PM
Sun, Jun 20
12:00 AM
Sun, Jun 20
1:00 AM
Sun, Jun 20
2:00 AM
Sun, Jun 20
3:00 AM
Sun, Jun 20
4:00 AM
Sun, Jun 20
5:00 AM
Sun, Jun 20
6:00 AM
Sun, Jun 20
7:00 AM
Sun, Jun 20
8:00 AM
Sun, Jun 20
9:00 AM
Sun, Jun 20
10:00 AM
Sun, Jun 20
11:00 AM
Sun, Jun 20
12:00 PM
Sun, Jun 20
1:00 PM
Sun, Jun 20
2:00 PM
Sun, Jun 20
3:00 PM
Sun, Jun 20
4:00 PM
Sun, Jun 20
5:00 PM
Condition
Rain

Rain

Rain

Rain

Rain

Rain

Rain

Rain

Clear

Rain

Rain

Rain

Rain

Rain

Rain

Rain

Rain

Rain

Rain

Rain

Rain

Rain

Rain

Rain

Rain

Rain

Rain

Rain

Clouds

Clouds

Clouds

Clouds

Clouds

Clouds

Clouds

Clouds

Rain

Rain

Rain

Rain

Rain

Rain

Rain

Rain

Rain

Rain

Rain

Rain
Temperature 74°F73°F74°F74°F74°F74°F74°F74°F74°F74°F74°F74°F74°F74°F76°F80°F81°F82°F83°F84°F85°F84°F84°F83°F82°F80°F79°F77°F76°F76°F76°F76°F76°F76°F76°F76°F75°F76°F79°F82°F83°F83°F80°F77°F78°F80°F83°F80°F
Feels Like 75°F74°F75°F75°F75°F76°F76°F76°F76°F76°F75°F75°F76°F76°F78°F80°F87°F88°F90°F91°F92°F90°F90°F90°F88°F85°F80°F79°F78°F78°F78°F78°F78°F78°F78°F78°F77°F78°F79°F88°F90°F89°F84°F79°F79°F80°F89°F84°F
Cloudiness 92%90%85%74%70%56%41%34%1%6%20%40%52%56%67%49%35%35%38%39%30%43%37%35%31%27%12%13%42%56%65%67%51%75%55%50%51%54%37%47%64%65%68%74%100%99%88%91%
Visibility 6 mi6 mi6 mi6 mi6 mi6 mi6 mi6 mi6 mi6 mi6 mi6 mi6 mi6 mi6 mi6 mi6 mi6 mi6 mi6 mi6 mi6 mi5 mi6 mi6 mi6 mi6 mi6 mi6 mi6 mi6 mi6 mi6 mi6 mi6 mi6 mi6 mi6 mi6 mi6 mi6 mi6 mi6 mi6 mi6 mi6 mi6 mi6 mi
Precipitation 100%100%89%96%100%100%100%96%56%70%78%82%78%81%99%100%100%100%100%100%85%89%88%84%80%80%63%70%59%59%49%48%4%0%15%32%41%59%100%100%100%100%100%100%98%97%94%94%
Humidity 87%85%87%88%88%89%91%92%91%92%94%96%96%94%90%81%78%78%74%70%68%72%72%74%77%80%83%87%89%90%91%91%92%93%94%95%96%95%89%81%75%71%76%83%83%80%71%77%
Dew Point 69°F68°F69°F70°F70°F71°F72°F72°F71°F72°F72°F73°F73°F73°F73°F73°F74°F74°F74°F73°F73°F73°F74°F74°F74°F73°F73°F73°F73°F73°F74°F74°F74°F74°F74°F74°F74°F74°F75°F75°F74°F73°F72°F72°F73°F73°F73°F72°F
Pressure 29.83"29.83"29.83"29.83"29.85"29.88"29.88"29.85"29.85"29.83"29.83"29.83"29.83"29.83"29.85"29.85"29.83"29.83"29.83"29.83"29.8"29.8"29.8"29.8"29.83"29.83"29.85"29.85"29.88"29.88"29.88"29.88"29.88"29.85"29.88"29.88"29.88"29.91"29.94"29.94"29.94"29.94"29.97"29.94"29.94"29.91"29.91"29.91"
Wind Speed 18.2 mph17 mph9.6 mph6.7 mph6.7 mph6 mph5.8 mph4.8 mph3.2 mph5 mph6.4 mph6.7 mph7 mph7.6 mph6.5 mph8.4 mph13.1 mph14 mph15.8 mph16.8 mph16.4 mph15.2 mph14.1 mph13 mph12.2 mph11.6 mph11.3 mph12.4 mph11.8 mph11.3 mph11.3 mph11.4 mph10.2 mph10.1 mph9.5 mph8.2 mph7.8 mph6.6 mph8.6 mph10.4 mph12.4 mph13.2 mph12.1 mph9.7 mph9.7 mph9.7 mph12.9 mph11.4 mph
Wind
Direction
91°
E
77°
ENE
83°
E
158°
SSE
166°
SSE
180°
S
179°
S
171°
S
177°
S
184°
S
180°
S
189°
S
178°
S
190°
S
189°
S
209°
SSW
203°
SSW
215°
SW
232°
SW
242°
WSW
252°
WSW
258°
WSW
261°
W
257°
WSW
248°
WSW
242°
WSW
228°
SW
218°
SW
222°
SW
220°
SW
218°
SW
219°
SW
220°
SW
223°
SW
225°
SW
224°
SW
222°
SW
220°
SW
226°
SW
222°
SW
219°
SW
210°
SSW
200°
SSW
195°
SSW
198°
SSW
202°
SSW
212°
SSW
210°
SSW

Daily Forecast

Date High Low Precip. Humidity
Today
Jun 18

Rain
80 °F
73 °F
100%
89%
Saturday
Jun 19

Rain
85 °F
74 °F
100%
70%
Sunday
Jun 20

Rain
83 °F
75 °F
100%
83%
Monday
Jun 21

Rain
84 °F
74 °F
80%
62%
Tuesday
Jun 22

Rain
88 °F
74 °F
96%
59%
Wednesday
Jun 23

Rain
90 °F
76 °F
72%
61%
Thursday
Jun 24

Rain
90 °F
77 °F
90%
58%
Friday
Jun 25

Clouds
91 °F
76 °F
23%
58%
Saturday
Jun 26

Rain
88 °F
78 °F
100%
63%
Sunday
Jun 27

Rain
80 °F
76 °F
97%
84%
Monday
Jun 28

Rain
89 °F
76 °F
100%
58%
Tuesday
Jun 29

Rain
89 °F
76 °F
79%
64%
Wednesday
Jun 30

Clouds
90 °F
76 °F
19%
53%
Thursday
Jul 1

Rain
91 °F
77 °F
71%
56%
Friday
Jul 2

Rain
89 °F
77 °F
84%
61%
Saturday
Jul 3

Clouds
92 °F
78 °F
2%
53%

Temperature 8-14 Day Outlook



Precipitation 8-14 Day Outlook




Quick Links
New Orleans, LA News
New Orleans, LA Photos
New Orleans, LA Videos




About Us
Contact Us
Site Map
Search Site
Advertise With Us
   
NewOrleans.CoastalTown.com
THE NEW ORLEANS, LA WEBSITE

Copyright 2021, Coastal Town
Privacy    |    Legal